sat.trackr.live / text

‹ back to catalog

STARLINK-3520

NORAD 51741 · 2022-016AD

PAYLOAD ACTIVE UNKNOWN

§ Identity

Operator
Country
US
Launch date
2022-02-21
Launch site
AFETR
Launch vehicle
Mass (kg)
RCS (m²)

Purposes: comms

External: N2YO · Heavens-Above · Gunter

§ Orbital elements

Epoch: 2026-09-19T22:51:57.568032Z

Period
94.01 min
Inclination
53.1593°
Eccentricity
0.0001263
Mean motion
15.31692106 rev/d
Perigee alt
469.9 km
Apogee alt
471.6 km
Semi-major
6,848.9 km
B*
2.2841e-5
RAAN
153.3792°
Arg perigee
91.2980°
Mean anomaly
268.8166°
Rev number
25,307

§ Raw data

STARLINK-35201 51741U 22016AD  26262.95274963  .00000344  00000+0  22841-4 0  99932 51741  53.1593 153.3792 0001263  91.2980 268.8166 15.31692106253075

JSON: /api/v1/satellites/51741 · /tle

For live sub-satellite position, see the globe view (requires WebGL).

§ Visibility from observer

Set your observer location to see the next 7 days of passes ≥ 10°. The values pass through the URL so the page stays shareable.

No JS? Fill the form by hand. The geolocation button needs JavaScript.